Location: The Saddle
(36.8333°N, 80.3417°W)
Time: 10:29:16
(UTC-05:00)

S-56A Canister/Altair - Pass Details

Date: 15 December 2023
Orbit: 640 x 2488 km, 38.9° (Epoch: 25 February)

Event Time Altitude Azimuth Distance (km) Brightness Sun altitude
Rises 06:44:21 0° 216° (SW) 5,267 11.7 -8.5°
Reaches altitude 10° 06:48:39 10° 208° (SSW) 3,960 11.1 -7.7°
Maximum altitude 06:57:02 33° 150° (SSE) 2,022 10.3 -6.1°
Drops below altitude 10° 07:02:59 10° 89° (E) 2,781 11.6 -5.1°
Sets 07:05:28 0° 79° (E) 3,531 11.9 -4.6°
